Location: Unspecified
(37.6100°N, 2.7800°W)
Time: 00:54:48
(UTC+00:00)

Envisat - Visible Passes

Search period start: 17 January 2018 00:00
Search period end: 27 January 2018 00:00
Orbit: 764 x 766 km, 98.2° (Epoch: 16 January)

Date Brightness Start Highest point End Pass type
(mag) Time Alt. Az. Time Alt. Az. Time Alt. Az.
17 Jan 5.2 18:59:59 11° NNE 18:59:59 11° NNE 19:00:11 10° NNE visible
18 Jan 5.4 20:02:48 12° NNW 20:02:48 12° NNW 20:03:11 10° NNW visible
19 Jan 5.0 19:25:24 15° N 19:25:24 15° N 19:26:16 10° N visible
20 Jan 4.9 18:48:01 13° NNE 18:48:01 13° NNE 18:48:42 10° NNE visible
20 Jan 5.6 20:28:12 12° NNW 20:28:12 12° NNW 20:28:33 10° NNW visible
21 Jan 5.0 19:50:48 18° N 19:50:48 18° N 19:52:03 10° N visible
22 Jan 4.6 19:13:23 19° NNE 19:13:23 19° NNE 19:14:59 10° N visible
23 Jan 4.8 18:35:58 13° NE 18:35:58 13° NE 18:37:07 10° NNE visible
23 Jan 5.1 20:16:09 19° NNW 20:16:09 19° NNW 20:17:32 10° NNW visible
24 Jan 4.4 19:38:43 25° N 19:38:43 25° N 19:40:53 10° N visible
25 Jan 4.3 19:01:17 22° NNE 19:01:17 22° NNE 19:03:38 10° N visible
25 Jan 5.4 20:41:29 16° NW 20:41:29 16° NW 20:42:42 10° NW visible
26 Jan 4.7 18:23:51 13° NE 18:23:51 13° NE 18:25:16 10° NE visible
26 Jan 4.4 20:04:02 29° NNW 20:04:02 29° NNW 20:06:29 10° NNW visible
